FW5778 Weather Reports


Display with metric or nautical units.
time (UTC)temp
F
wind
direction
speed
MPH
gust
MPH
rain 1hr
in
rain 24hr
in
rain mn
in
humidity
%
barometer
mb
20210614105517 72 184 5.0 8.0 0.00 0.00 0.00 14 1018.0
20210614105014 73 155 3.0 7.0 0.00 0.00 0.00 14 1018.1
20210614104618 73 181 4.0 8.0 0.00 0.00 0.00 13 1018.1
20210614104014 73 185 4.0 8.0 0.00 0.00 0.00 12 1017.9
20210614103512 73 225 3.0 8.0 0.00 0.00 0.00 12 1018.0
20210614103057 73 231 3.0 8.0 0.00 0.00 0.00 12 1017.9
20210614102511 74 187 3.0 10.0 0.00 0.00 0.00 12 1017.8
20210614102010 73 174 4.0 10.0 0.00 0.00 0.00 11 1017.7
20210614101513 73 143 5.0 10.0 0.00 0.00 0.00 11 1017.6
20210614101009 73 122 6.0 11.0 0.00 0.00 0.00 11 1017.6
20210614100508 73 151 6.0 11.0 0.00 0.00 0.00 11 1017.5
20210614100021 73 151 5.0 9.0 0.00 0.00 0.00 11 1017.5
20210614095506 73 193 3.0 13.0 0.00 0.00 0.00 11 1017.5
20210614095004 74 158 5.0 13.0 0.00 0.00 0.00 11 1017.4
20210614094510 75 237 5.0 12.0 0.00 0.00 0.00 10 1017.4
20210614094005 75 204 5.0 11.0 0.00 0.00 0.00 11 1017.3
20210614093510 75 214 5.0 9.0 0.00 0.00 0.00 11 1017.3
20210614093010 76 205 4.0 10.0 0.00 0.00 0.00 13 1017.3
20210614092506 76 171 5.0 12.0 0.00 0.00 0.00 12 1017.1
20210614092002 76 169 5.0 13.0 0.00 0.00 0.00 13 1017.1
20210614091501 75 167 6.0 13.0 0.00 0.00 0.00 14 1017.1
20210614091121 74 184 6.0 13.0 0.00 0.00 0.00 15 1017.0
20210614090617 74 244 5.0 8.0 0.00 0.00 0.00 14 1017.0
20210614090335 75 219 4.0 8.0 0.00 0.00 0.00 14 1017.0
20210614085558 76 217 4.0 12.0 0.00 0.00 0.00 14 1017.0
20210614085056 76 181 5.0 12.0 0.00 0.00 0.00 13 1017.0
20210614084713 77 162 6.0 13.0 0.00 0.00 0.00 13 1016.9
20210614084058 77 163 7.0 15.0 0.00 0.00 0.00 12 1016.9
20210614083615 77 162 7.0 15.0 0.00 0.00 0.00 12 1016.8
20210614083217 76 181 7.0 12.0 0.00 0.00 0.00 12 1016.7
20210614082551 75 152 5.0 11.0 0.00 0.00 0.00 12 1016.8
20210614082050 76 162 3.0 11.0 0.00 0.00 0.00 12 1016.8
20210614081709 76 186 6.0 11.0 0.00 0.00 0.00 11 1016.7
20210614081049 76 227 5.0 10.0 0.00 0.00 0.00 13 1016.7
20210614080606 76 199 5.0 12.0 0.00 0.00 0.00 13 1016.7
20210614080121 77 155 4.0 12.0 0.00 0.00 0.00 14 1016.7
20210614075600 76 141 6.0 11.0 0.00 0.00 0.00 15 1016.7
20210614075048 76 169 6.0 10.0 0.00 0.00 0.00 16 1016.7
20210614074706 76 146 6.0 10.0 0.00 0.00 0.00 17 1016.6
20210614074046 76 196 4.0 10.0 0.00 0.00 0.00 16 1016.7
20210614073545 76 170 4.0 8.0 0.00 0.00 0.00 15 1016.6
20210614073123 76 147 4.0 10.0 0.00 0.00 0.00 14 1016.6
20210614072541 77 154 5.0 10.0 0.00 0.00 0.00 13 1016.5
20210614072055 78 159 4.0 9.0 0.00 0.00 0.00 13 1016.5
20210614071610 78 148 4.0 12.0 0.00 0.00 0.00 12 1016.4
20210614071039 79 142 5.0 12.0 0.00 0.00 0.00 11 1016.3
20210614070538 79 181 6.0 12.0 0.00 0.00 0.00 10 1016.3
20210614070050 79 117 6.0 12.0 0.00 0.00 0.00 10 1016.3
20210614065537 79 132 5.0 11.0 0.00 0.00 0.00 11 1016.3
20210614065047 79 184 6.0 11.0 0.00 0.00 0.00 12 1016.2
20210614064616 78 158 6.0 11.0 0.00 0.00 0.00 15 1016.2
20210614064035 78 241 3.0 8.0 0.00 0.00 0.00 15 1016.2
20210614063535 79 288 3.0 8.0 0.00 0.00 0.00 14 1016.2
20210614063117 79 238 4.0 10.0 0.00 0.00 0.00 14 1016.1
20210614062539 80 184 5.0 10.0 0.00 0.00 0.00 12 1016.0
20210614062048 80 159 5.0 10.0 0.00 0.00 0.00 10 1016.0
20210614061553 80 219 5.0 12.0 0.00 0.00 0.00 8 1016.0
20210614061030 81 126 5.0 12.0 0.00 0.00 0.00 8 1016.0
20210614060530 80 140 7.0 11.0 0.00 0.00 0.00 9 1016.0
20210614060040 80 147 6.0 11.0 0.00 0.00 0.00 9 1015.8
20210614055526 79 142 5.0 11.0 0.00 0.00 0.00 9 1015.8
20210614055026 80 215 3.0 7.0 0.00 0.00 0.00 9 1015.7
20210614054639 80 184 4.0 11.0 0.00 0.00 0.00 9 1015.6
20210614054024 80 205 5.0 10.0 0.00 0.00 0.00 9 1015.6
20210614053525 80 130 5.0 10.0 0.00 0.00 0.00 10 1015.5
20210614052524 79 230 3.0 8.0 0.00 0.00 0.00 10 1015.5
20210614052046 78 211 3.0 8.0 0.00 0.00 0.00 12 1015.3
20210614051539 78 195 2.0 5.0 0.00 0.00 0.00 13 1015.3
20210614051031 78 202 1.0 3.0 0.00 0.00 0.00 14 1015.3
20210614050523 78 199 0.0 4.0 0.00 0.00 0.00 14 1015.3
20210614050037 78 186 0.0 5.0 0.00 0.00 0.00 14 1015.2
20210614045523 78 228 0.0 5.0 0.00 0.00 0.00 14 1015.2
20210614045027 78 211 3.0 5.0 0.00 0.00 0.00 14 1015.3
20210614044537 78 219 2.0 5.0 0.00 0.00 0.00 14 1015.1
20210614044035 77 165 1.0 5.0 0.00 0.00 0.00 15 1015.2
20210614043525 78 207 3.0 5.0 0.00 0.00 0.00 15 1015.0
20210614043138 79 233 1.0 3.0 0.00 0.00 0.00 15 1015.0
20210614042532 79 251 1.0 4.0 0.00 0.00 0.00 16 1014.9
20210614042021 79 247 0.0 4.0 0.00 0.00 0.00 16 1014.9
20210614041543 79 247 2.0 4.0 0.00 0.00 0.00 16 1014.9
20210614041055 80 250 1.0 4.0 0.00 0.00 0.00 16 1014.8
20210614040520 79 241 1.0 4.0 0.00 0.00 0.00 16 1014.7
20210614040118 80 271 0.0 1.0 0.00 0.00 0.00 16 1014.6
20210614035528 80 265 0.0 3.0 0.00 0.00 0.00 16 1014.5
20210614035039 81 234 0.0 4.0 0.00 0.00 0.00 16 1014.5
20210614034603 81 236 3.0 4.0 0.00 0.00 0.00 16 1014.4
20210614034019 82 271 0.0 1.0 0.00 0.00 0.00 18 1014.4
20210614033529 82 248 0.0 1.0 0.00 0.00 0.00 17 1014.2
20210614033054 83 241 0.0 1.0 0.00 0.00 0.00 17 1014.2
20210614032528 84 218 0.0 2.0 0.00 0.00 0.00 16 1014.2
20210614032019 85 243 0.0 3.0 0.00 0.00 0.00 17 1014.1
20210614031552 85 261 1.0 3.0 0.00 0.00 0.00 16 1014.0
20210614031026 86 302 0.0 3.0 0.00 0.00 0.00 15 1013.9
20210614030518 87 297 0.0 1.0 0.00 0.00 0.00 14 1013.9
20210614030038 87 297 0.0 1.0 0.00 0.00 0.00 14 1013.7
20210614025518 88 297 0.0 1.0 0.00 0.00 0.00 14 1013.7
20210614025018 89 46 0.0 3.0 0.00 0.00 0.00 13 1013.8
20210614024519 90 49 1.0 3.0 0.00 0.00 0.00 12 1013.7
20210614024048 91 78 0.0 1.0 0.00 0.00 0.00 14 1013.6
20210614023517 92 243 0.0 1.0 0.00 0.00 0.00 12 1013.6
20210614023055 93 226 0.0 0.0 0.00 0.00 0.00 11 1013.6
20210614022536 94 226 0.0 4.0 0.00 0.00 0.00 9 1013.5
20210614022017 93 226 0.0 4.0 0.00 0.00 0.00 9 1013.5
20210614021645 93 262 0.0 6.0 0.00 0.00 0.00 10 1013.4
20210614021035 94 52 3.0 6.0 0.00 0.00 0.00 10 1013.2
20210614020526 94 17 2.0 5.0 0.00 0.00 0.00 9 1013.2
20210614020024 95 335 1.0 3.0 0.00 0.00 0.00 9 1013.2
20210614015516 95 5 0.0 3.0 0.00 0.00 0.00 9 1013.2
20210614015019 95 302 0.0 6.0 0.00 0.00 0.00 9 1013.2
20210614014614 94 323 3.0 6.0 0.00 0.00 0.00 9 1013.1
20210614014022 94 340 1.0 7.0 0.00 0.00 0.00 10 1013.1
20210614013515 94 330 3.0 7.0 0.00 0.00 0.00 8 1013.2
20210614013029 94 330 2.0 8.0 0.00 0.00 0.00 9 1013.2
20210614012515 95 324 4.0 8.0 0.00 0.00 0.00 8 1013.1
20210614012015 94 283 2.0 8.0 0.00 0.00 0.00 9 1013.1
20210614011544 95 310 4.0 10.0 0.00 0.00 0.00 9 1013.1
20210614011042 95 336 5.0 9.0 0.00 0.00 0.00 8 1013.0
20210614010514 95 295 3.0 9.0 0.00 0.00 0.00 8 1013.0
20210614010035 96 322 5.0 9.0 0.00 0.00 0.00 7 1013.1
20210614005518 96 302 1.0 5.0 0.00 0.00 0.00 9 1013.1
20210614005013 96 333 0.0 5.0 0.00 0.00 0.00 8 1013.1
20210614004522 97 323 0.0 5.0 0.00 0.00 0.00 9 1013.1
20210614004012 98 333 2.0 6.0 0.00 0.00 0.00 7 1013.1
20210614003516 97 88 0.0 9.0 0.00 0.00 0.00 7 1013.1
20210614003058 97 155 1.0 9.0 0.00 0.00 0.00 7 1013.2
20210614002512 97 88 1.0 10.0 0.00 0.00 0.00 6 1013.2
20210614002016 97 155 3.0 9.0 0.00 0.00 0.00 7 1013.2
20210614001546 97 124 3.0 10.0 0.00 0.00 0.00 7 1013.2
20210614001011 98 119 3.0 13.0 0.00 0.00 0.00 7 1013.2
20210614000516 98 136 6.0 13.0 0.00 0.00 0.00 5 1013.2
20210614000016 98 136 3.0 8.0 0.00 0.00 0.00 7 1013.3
20210613235509 98 125 1.0 9.0 0.00 0.00 0.00 6 1013.3
20210613235013 98 121 5.0 11.0 0.00 0.00 0.00 6 1013.3
20210613234520 98 149 5.0 11.0 0.00 0.00 0.00 6 1013.3
20210613234008 98 198 3.0 11.0 0.00 0.00 0.00 6 1013.4
20210613233507 98 138 4.0 11.0 0.00 0.00 0.00 6 1013.4
20210613233008 98 110 4.0 13.0 0.00 0.00 0.00 6 1013.4
20210613232509 97 127 5.0 18.0 0.00 0.00 0.00 6 1013.5
20210613232024 97 89 7.0 21.0 0.00 0.00 0.00 6 1013.5
20210613231539 98 134 7.0 16.0 0.00 0.00 0.00 6 1013.5
20210613231006 97 126 6.0 16.0 0.00 0.00 0.00 6 1013.6
20210613230505 97 141 7.0 14.0 0.00 0.00 0.00 6 1013.6
20210613230007 97 122 5.0 13.0 0.00 0.00 0.00 7 1013.6
20210613225515 97 136 8.0 13.0 0.00 0.00 0.00 6 1013.7
20210613225003 97 132 4.0 13.0 0.00 0.00 0.00 6 1013.8
20210613224510 98 147 7.0 16.0 0.00 0.00 0.00 5 1013.9
20210613224001 97 136 6.0 16.0 0.00 0.00 0.00 6 1014.0
20210613223505 97 218 5.0 13.0 0.00 0.00 0.00 6 1014.0
20210613223140 97 143 7.0 12.0 0.00 0.00 0.00 6 1014.1
20210613222600 98 139 5.0 11.0 0.00 0.00 0.00 6 1014.1
20210613222058 98 125 2.0 15.0 0.00 0.00 0.00 6 1014.2
20210613221635 97 186 5.0 15.0 0.00 0.00 0.00 5 1014.3
20210613221057 97 154 2.0 13.0 0.00 0.00 0.00 6 1014.2
20210613220608 97 117 6.0 13.0 0.00 0.00 0.00 6 1014.4
20210613220210 97 135 6.0 18.0 0.00 0.00 0.00 6 1014.4
20210613215557 97 134 9.0 18.0 0.00 0.00 0.00 6 1014.5
20210613215054 97 127 9.0 16.0 0.00 0.00 0.00 6 1014.5
20210613214715 97 115 11.0 16.0 0.00 0.00 0.00 6 1014.5
20210613214052 97 162 8.0 13.0 0.00 0.00 0.00 6 1014.6
20210613213605 97 166 5.0 10.0 0.00 0.00 0.00 7 1014.6
20210613213140 97 160 4.0 10.0 0.00 0.00 0.00 7 1014.7
20210613212550 96 160 3.0 9.0 0.00 0.00 0.00 7 1014.7
20210613212048 97 145 3.0 13.0 0.00 0.00 0.00 9 1015.0
20210613211627 96 129 8.0 15.0 0.00 0.00 0.00 6 1015.0
20210613211053 96 155 6.0 15.0 0.00 0.00 0.00 7 1015.0
20210613210546 96 153 4.0 9.0 0.00 0.00 0.00 7 1015.1
20210613210118 95 162 5.0 13.0 0.00 0.00 0.00 6 1015.2
20210613205546 95 173 6.0 13.0 0.00 0.00 0.00 7 1015.3
20210613205106 95 146 5.0 14.0 0.00 0.00 0.00 8 1015.4
20210613204637 95 134 7.0 12.0 0.00 0.00 0.00 7 1015.5
20210613204047 95 92 4.0 13.0 0.00 0.00 0.00 9 1015.5
20210613203542 95 86 8.0 15.0 0.00 0.00 0.00 7 1015.5
20210613203051 95 131 8.0 15.0 0.00 0.00 0.00 7 1015.6
20210613202551 95 184 3.0 14.0 0.00 0.00 0.00 9 1015.6
20210613202057 95 113 5.0 13.0 0.00 0.00 0.00 9 1015.7
20210613201654 95 182 5.0 13.0 0.00 0.00 0.00 10 1015.7
20210613201038 95 135 4.0 10.0 0.00 0.00 0.00 9 1015.8
20210613200543 95 184 4.0 12.0 0.00 0.00 0.00 9 1015.8
20210613200135 94 239 4.0 12.0 0.00 0.00 0.00 9 1016.0
20210613195600 94 226 5.0 13.0 0.00 0.00 0.00 10 1016.1
20210613195042 94 217 7.0 13.0 0.00 0.00 0.00 10 1016.0
20210613194702 94 262 7.0 13.0 0.00 0.00 0.00 10 1016.1
20210613194033 93 217 5.0 11.0 0.00 0.00 0.00 11 1016.2
20210613193531 93 144 4.0 13.0 0.00 0.00 0.00 12 1016.2
20210613193128 93 141 6.0 13.0 0.00 0.00 0.00 12 1016.3
20210613192530 92 178 5.0 14.0 0.00 0.00 0.00 12 1016.4
20210613192029 92 152 6.0 14.0 0.00 0.00 0.00 11 1016.4
20210613191607 91 116 5.0 14.0 0.00 0.00 0.00 13 1016.5
20210613191025 91 106 6.0 14.0 0.00 0.00 0.00 12 1016.5
20210613190524 91 137 5.0 14.0 0.00 0.00 0.00 14 1016.6
20210613190116 91 135 8.0 16.0 0.00 0.00 0.00 13 1016.5
20210613185521 91 150 8.0 16.0 0.00 0.00 0.00 12 1016.7
20210613185021 90 134 7.0 13.0 0.00 0.00 0.00 14 1016.7
20210613184526 90 131 7.0 14.0 0.00 0.00 0.00 14 1016.9
20210613184018 90 103 6.0 14.0 0.00 0.00 0.00 14 1016.9
20210613183518 90 176 9.0 14.0 0.00 0.00 0.00 14 1017.0
20210613183032 89 113 5.0 9.0 0.00 0.00 0.00 16 1017.0
20210613182516 88 108 4.0 12.0 0.00 0.00 0.00 16 1017.1
20210613182017 88 131 7.0 14.0 0.00 0.00 0.00 16 1017.1
20210613181520 88 125 7.0 14.0 0.00 0.00 0.00 15 1017.3
20210613181015 89 136 6.0 14.0 0.00 0.00 0.00 15 1017.3
20210613180531 88 162 6.0 14.0 0.00 0.00 0.00 15 1017.3
20210613180043 88 153 5.0 10.0 0.00 0.00 0.00 17 1017.3
20210613175516 87 140 6.0 13.0 0.00 0.00 0.00 18 1017.3
20210613175013 87 135 6.0 13.0 0.00 0.00 0.00 19 1017.4
20210613174523 87 174 5.0 11.0 0.00 0.00 0.00 19 1017.4
20210613174009 86 214 6.0 12.0 0.00 0.00 0.00 19 1017.4
20210613173528 86 142 6.0 13.0 0.00 0.00 0.00 19 1017.4
20210613173034 86 158 6.0 13.0 0.00 0.00 0.00 19 1017.5
20210613172506 86 150 6.0 11.0 0.00 0.00 0.00 18 1017.5
20210613172009 86 115 5.0 11.0 0.00 0.00 0.00 20 1017.5
20210613171505 85 137 4.0 10.0 0.00 0.00 0.00 21 1017.5
20210613171005 84 134 5.0 10.0 0.00 0.00 0.00 22 1017.5
20210613170502 84 138 5.0 10.0 0.00 0.00 0.00 19 1017.5
20210613170002 84 131 6.0 9.0 0.00 0.00 0.00 21 1017.6
20210613165059 83 120 6.0 12.0 0.00 0.00 0.00 21 1017.6
20210613164612 83 82 4.0 10.0 0.00 0.00 0.00 21 1017.6
20210613164121 83 141 5.0 10.0 0.00 0.00 0.00 21 1017.6
20210613163558 83 117 3.0 9.0 0.00 0.00 0.00 20 1017.6
20210613163223 82 124 4.0 9.0 0.00 0.00 0.00 20 1017.6
20210613162555 82 96 3.0 9.0 0.00 0.00 0.00 21 1017.6
20210613162055 81 134 4.0 9.0 0.00 0.00 0.00 21 1017.7
20210613161712 81 105 2.0 7.0 0.00 0.00 0.00 23 1017.6
20210613161052 80 140 2.0 9.0 0.00 0.00 0.00 23 1017.6
20210613160554 80 145 3.0 9.0 0.00 0.00 0.00 23 1017.8
20210613160156 80 136 5.0 9.0 0.00 0.00 0.00 23 1017.7
20210613155607 80 153 4.0 9.0 0.00 0.00 0.00 22 1017.8
20210613155114 80 123 4.0 10.0 0.00 0.00 0.00 21 1017.8
20210613154628 80 156 4.0 8.0 0.00 0.00 0.00 22 1017.8
20210613154108 79 168 3.0 8.0 0.00 0.00 0.00 22 1017.9
20210613153546 79 165 2.0 9.0 0.00 0.00 0.00 23 1017.9
20210613153133 79 167 4.0 9.0 0.00 0.00 0.00 22 1017.9
20210613152545 78 150 3.0 6.0 0.00 0.00 0.00 22 1017.9
20210613152045 78 136 3.0 7.0 0.00 0.00 0.00 23 1018.0
20210613151649 78 125 2.0 6.0 0.00 0.00 0.00 22 1018.1
20210613151043 78 80 0.0 7.0 0.00 0.00 0.00 23 1018.1
20210613150542 77 139 3.0 9.0 0.00 0.00 0.00 23 1018.1
20210613150102 77 144 2.0 10.0 0.00 0.00 0.00 23 1018.1
20210613145539 76 129 6.0 10.0 0.00 0.00 0.00 21 1018.0
20210613145043 76 161 4.0 11.0 0.00 0.00 0.00 23 1018.1
20210613144722 75 124 5.0 11.0 0.00 0.00 0.00 24 1017.9
20210613144035 75 174 3.0 11.0 0.00 0.00 0.00 26 1017.9
20210613143534 74 164 6.0 11.0 0.00 0.00 0.00 25 1017.9
20210613143121 74 209 4.0 9.0 0.00 0.00 0.00 27 1017.8
20210613142532 73 183 4.0 10.0 0.00 0.00 0.00 27 1017.9
20210613142030 73 162 3.0 9.0 0.00 0.00 0.00 28 1017.8
20210613141602 72 130 4.0 7.0 0.00 0.00 0.00 29 1017.8
20210613141027 72 195 2.0 5.0 0.00 0.00 0.00 31 1017.8
20210613140526 71 121 1.0 5.0 0.00 0.00 0.00 31 1017.8
20210613140031 70 134 1.0 5.0 0.00 0.00 0.00 31 1017.8
20210613135523 69 174 1.0 5.0 0.00 0.00 0.00 31 1017.8
20210613135021 69 138 1.0 7.0 0.00 0.00 0.00 30 1017.8
20210613134530 69 158 2.0 8.0 0.00 0.00 0.00 30 1017.8
20210613134034 68 167 3.0 9.0 0.00 0.00 0.00 29 1017.9
20210613133524 68 148 4.0 9.0 0.00 0.00 0.00 29 1017.8
20210613133033 68 169 4.0 7.0 0.00 0.00 0.00 28 1017.9
20210613132520 67 164 3.0 7.0 0.00 0.00 0.00 29 1017.8
20210613132017 67 155 3.0 6.0 0.00 0.00 0.00 30 1017.8
20210613131614 66 156 3.0 6.0 0.00 0.00 0.00 30 1017.7
20210613131017 65 139 2.0 4.0 0.00 0.00 0.00 32 1017.6
20210613130516 65 172 2.0 3.0 0.00 0.00 0.00 32 1017.6
20210613130108 64 146 0.0 1.0 0.00 0.00 0.00 33 1017.6
20210613125526 63 209 0.0 1.0 0.00 0.00 0.00 34 1017.5
20210613125015 64 207 0.0 0.0 0.00 0.00 0.00 32 1017.6
20210613124546 64 188 0.0 1.0 0.00 0.00 0.00 33 1017.6
20210613124014 63 188 0.0 2.0 0.00 0.00 0.00 31 1017.5
20210613123532 62 163 0.0 3.0 0.00 0.00 0.00 32 1017.5
20210613123044 61 159 0.0 4.0 0.00 0.00 0.00 32 1017.6
20210613122514 61 151 2.0 4.0 0.00 0.00 0.00 31 1017.6
20210613122019 61 233 0.0 2.0 0.00 0.00 0.00 31 1017.5
20210613121522 61 240 1.0 2.0 0.00 0.00 0.00 32 1017.5
20210613121016 61 229 0.0 1.0 0.00 0.00 0.00 34 1017.5
20210613120517 61 236 0.0 2.0 0.00 0.00 0.00 32 1017.4
20210613120018 62 222 1.0 2.0 0.00 0.00 0.00 29 1017.4
20210613115510 62 215 0.0 3.0 0.00 0.00 0.00 30 1017.3
20210613115019 62 215 1.0 3.0 0.00 0.00 0.00 30 1017.3
20210613114538 62 225 2.0 4.0 0.00 0.00 0.00 30 1017.3
20210613114008 62 240 3.0 4.0 0.00 0.00 0.00 31 1017.3
20210613113510 61 229 2.0 3.0 0.00 0.00 0.00 30 1017.3
20210613113013 61 230 0.0 1.0 0.00 0.00 0.00 32 1017.2
20210613112507 62 242 0.0 1.0 0.00 0.00 0.00 30 1017.2
20210613112007 62 233 0.0 2.0 0.00 0.00 0.00 29 1017.2
20210613111510 62 231 1.0 2.0 0.00 0.00 0.00 28 1017.2
20210613111005 62 247 1.0 2.0 0.00 0.00 0.00 29 1017.2
20210613110505 62 224 1.0 2.0 0.00 0.00 0.00 29 1017.1
20210613110020 62 258 1.0 4.0 0.00 0.00 0.00 29 1017.0